ERS 1

导读

ERS-1是欧洲空间局(ESA)发射的首颗欧洲遥感卫星,于1991年7月17日成功发射。它搭载雷达高度计、合成孔径雷达等多种载荷,主要用于海洋观测、冰川监测、地形测绘等研究,获取了大量地球观测数据,为气候变化研究、海洋动力学探索等领域提供了关键支撑,推动了欧洲遥感技术的发展。

基本信息
目录编号:
21574
目录名称:
ERS 1
国际标识:
1991-050A
轨道中心:
EARTH
卫星名称:
ERS 1
卫星全名:
--
卫星状态:
在轨 (已飞行12754 天)
发射日期:
1991-07-17 UTC
国别 :
(ESA)
星等 :
--
轨道信息
数据来源 国际轨道数据 AOE轨道数据
星历时间 2026-06-17T20:17:47+0800
4小时前
查看轨道信息
2026-06-17T04:00:00+0800
20小时前
查看轨道信息
半长轴 7138.23km 7138.242km
偏心率 0.0030716 0.003007
轨道倾角 98.780° 98.782°
近地点辐角 265.940° 268.857°
升交点赤经 189.218° 188.524°
平近点角 93.828° 174.074°
近地点 738.167km 738.64km
远地点 782.019km 781.57km
周期 100.033分钟 100.034分钟
每日圈数 14.395178 14.395139
详细信息
使用方式:
暂无
2D轨道图
3D轨道图
轨道高度分析图
轨道倾角分析图
轨道综合分析图
查看轨道综合分析图